Starlink 36947

operational
NORAD ID: 68033 Int'l Des: 2026-040 Owner: SPXS Country: US Constellation: starlink
LEOCIRCULARRETROGRADE

Über Starlink 36947

Beschreibung wird geladen...

Live-Position

3D-Globus wird geladen...

Nächste Überflüge

Höhenverlauf

Altitude vs Time

uPlot chart will show altitude changes over time

Zweizeiliger Elementsatz

1 68033C 26040U 26061.10465278 .00629190 00000+0 68087-3 0 618
2 68033 97.2856 8.4879 0010206 256.3152 209.5666 16.09184503 10
Epoch: 2. März 2026 • Age: 27 hours

Aktueller Status

Höhe 265.6 km
Geschwindigkeit 7.75 km/s
Subsatellitenpunkt -67.16°S, 178.99°E
Startdatum 1. März 2026
Alter 1 days
Typ internet

Technische Details

Klassifizierung Payload
Masse 575.00 kg
Trockenmasse 530.00 kg
Gesamtmasse 575.00 kg
Länge 0.30 m
Durchmesser 4.10 m
Spannweite 29.00 m
Form Box + pan
Hersteller SPXS
Bus-Typ Starlink V2MO
Phasenstatus In Orbit
Besitzer/Staat SPXS/US

Große Konstellationen

Loading constellations...